This demonstration page uses our WeatherBlox Daily Observations layout. Learn more.

Left ArrowRight Arrow

41.12389, -100.76542

Hourly Observations for August 29, 2019

Temp ( °F °C ) Dew Point ( °F °C ) Humidity (%) Winds ( mph kmh ) Pressure ( in mb ) Visibility ( mi km ) Precip ( " mm )
12:53 am 00:53 Mostly Clear 68 20 65 18.3 90 90 ESE 5 7 29.88 1012 10 16 0.00 0.00
1:53 am 01:53 Clear 69 20.6 64 17.8 84 84 SSW 5 7 29.87 1012 10 16 0.00 0.00
2:53 am 02:53 Clear 69 20.6 64 17.8 84 84 SW 5 7 29.85 1011 10 16 0.00 0.00
3:53 am 03:53 Clear 69 20.6 64 17.8 84 84 W 6 9 29.85 1011 10 16 0.00 0.00
4:53 am 04:53 Clear 67 19.4 63 17.2 87 87 N 5 7 29.86 1011 10 16 0.00 0.00
5:53 am 05:53 Clear 63 17.2 61 16.1 93 93 Calm 29.87 1011 10 16 0.00 0.00
6:33 am 06:33 Clear with Mist and Fog 61 16.1 59 15 93 93 Calm 29.88 1012 3 4 0.00 0.00
6:42 am 06:42 Clear 61 16.1 58 14.4 90 90 Calm 29.88 1012 9 14 0.00 0.00
6:53 am 06:53 Clear 60 15.6 58 14.4 93 93 Calm 29.88 1012 9 14 0.00 0.00
7:53 am 07:53 Partly Cloudy with Mist and Fog 62 16.7 61 16.1 96 96 SSE 5 7 29.89 1012 3 5 0.00 0.00
8:53 am 08:53 Sunny 69 20.6 66 18.9 90 90 ESE 5 7 29.89 1012 10 16 0.00 0.00
9:53 am 09:53 Sunny 76 24.4 68 20 77 77 ESE 6 9 29.89 1012 10 16 0.00 0.00
10:53 am 10:53 Sunny 78 25.6 69 20.6 74 74 SE 6 9 29.89 1012 10 16 0.00 0.00
11:53 am 11:53 Sunny 85 29.4 68 20 57 57 E 12 19 29.89 1012 10 16 0.00 0.00
12:53 pm 12:53 Sunny 86 30 68 20 55 55 E 16 26 29.89 1012 10 16 0.00 0.00
1:53 pm 13:53 Sunny 86 30 68 20 55 55 E 20 31 29.89 1012 10 16 0.00 0.00
2:53 pm 14:53 Mostly Cloudy 85 29.4 67 19.4 55 55 E 21 33 29.89 1012 10 16 0.00 0.00
3:53 pm 15:53 Cloudy 83 28.3 66 18.9 57 57 E 22 35 29.90 1013 10 16 0.00 0.00
4:53 pm 16:53 Cloudy 77 25 59 15 54 54 E 17 28 29.92 1013 10 16 0.00 0.00
5:53 pm 17:53 Cloudy 75 23.9 56 13.3 52 52 E 12 19 29.97 1015 10 16 0.00 0.00
6:53 pm 18:53 Cloudy 74 23.3 54 12.2 50 50 E 15 24 29.98 1015 10 16 0.00 0.00
7:53 pm 19:53 Cloudy 73 22.8 54 12.2 51 51 ENE 13 20 29.98 1015 10 16 0.00 0.00
8:53 pm 20:53 Partly Cloudy 69 20.6 53 11.7 57 57 ENE 12 19 30.00 1016 10 16 0.00 0.00
9:53 pm 21:53 Mostly Cloudy 68 20 52 11.1 57 57 ENE 12 19 30.02 1017 10 16 0.00 0.00
10:53 pm 22:53 Clear 65 18.3 50 10 59 59 E 7 11 30.03 1017 10 16 0.00 0.00
11:53 pm 23:53 Mostly Clear 61 16.1 52 11.1 72 72 E 3 6 30.05 1018 10 16 0.00 0.00

Powered by AerisWeather